Location: Betz
(49.1556°N, 2.9558°E)
Time: 11:21:46
(UTC+00:00)

CZ-2C R/B - Pass Details

Date: 18 September 2019
Orbit: 704 x 907 km, 98.1° (Epoch: 19 October)

Event Time Altitude Azimuth Distance (km) Brightness Sun altitude
Exits shadow 19:55:02 32° 150° (SSE) 1,357 3.8 -19.6°
Maximum altitude 19:57:32 73° 73° (ENE) 861 3.1 -19.9°
Drops below altitude 10° 20:03:04 10° 349° (N) 2,495 6.2 -20.7°
Sets 20:05:31 0° 348° (NNW) 3,463 7.0 -21.1°
